Lid_Strength_Index
-1 -1 -1 -1 -1 -1 -1 -1 -1 -1 -1 -1 -1 -2 -2 -2 -1 6 9 4 2 -4 -3 2 3 4 6 8 7 8 12 13 12 11 11 10 10 10 10 11 11 11 11 11 9
-1 -1 -1 -1 -1 -1 -1 -1 -1 -1 -1 -1 -1 -1 -2 -2 5 7 -0 -4 -5 -4 3 4 5 5 7 9 9 9 12 11 9 10 11 9 10 10 11 12 12 12 11 10 11
-1 -1 -1 -1 -1 -1 -1 -1 -1 -1 -1 -1 -2 -2 -2 -1 7 8 -3 -4 -4 -2 3 4 5 6 9 10 10 10 11 9 9 9 9 9 10 10 11 12 11 11 11 10 12
-1 -1 -1 -1 -1 -1 -1 -1 -1 -1 -1 -1 -2 -2 -2 5 10 7 -3 -4 -4 2 4 6 7 8 11 12 11 12 11 10 9 10 10 10 10 11 11 10 10 10 11 11 12
-1 -1 -1 -1 -1 -1 -1 -1 -1 -1 -1 -1 -1 -2 4 9 7 5 -3 -0 5 4 6 7 9 10 12 12 12 13 12 11 10 11 11 10 11 11 11 10 11 10 10 11 10
-1 -1 -1 -1 -1 -0 -0 -1 -1 -1 -1 -1 -1 -1 7 10 6 6 5 5 5 5 6 7 9 9 11 12 12 12 12 12 11 11 11 12 13 12 12 12 11 11 11 11 11
-1 -1 -1 -1 -0 -0 -0 -1 -0 -0 -1 -1 -1 3 8 8 7 7 5 6 6 5 6 7 8 9 10 12 11 12 14 13 13 12 12 12 14 13 12 12 12 12 13 12 12
-0 -1 -1 -0 0 0 -0 0 0 -0 -1 -1 -0 6 10 6 7 7 6 6 6 6 6 7 8 9 10 11 11 13 14 16 13 12 13 13 16 14 13 13 13 13 14 13 12
-0 -1 -0 0 0 0 0 1 0 -1 -1 -1 7 8 11 4 8 7 7 7 7 7 7 6 7 10 10 13 14 15 17 17 15 12 13 14 15 14 14 13 13 14 14 14 13
0 0 0 1 1 1 1 1 1 1 2 3 5 10 9 9 8 8 8 7 8 8 8 9 11 13 14 15 17 16 17 17 18 15 14 15 15 14 13 14 13 14 14 15 14
1 0 1 1 1 2 4 6 9 10 9 10 11 10 10 9 8 9 8 9 9 10 12 12 13 15 14 15 16 16 17 18 16 15 16 17 16 15 14 16 15 15 15 15 15
1 1 1 2 2 2 5 8 8 8 10 8 9 9 8 9 11 10 9 11 12 13 13 13 15 13 13 13 15 16 17 17 16 15 15 17 16 15 16 16 15 15 15 15 15
1 1 1 2 3 6 7 7 5 6 11 10 8 9 9 9 11 11 10 11 13 14 14 15 14 12 13 15 16 17 18 18 18 16 17 18 17 17 16 16 15 15 15 16 15
2 2 2 3 5 7 7 5 5 7 15 13 10 9 9 9 12 10 10 11 13 14 14 15 13 13 15 15 15 18 16 16 17 18 20 19 20 18 17 16 16 16 16 16 15
2 2 3 4 8 8 6 5 6 10 20 13 11 9 11 11 11 11 10 11 13 14 14 16 15 15 16 15 15 17 16 17 17 18 20 19 20 17 18 15 14 15 15 15 15
3 3 4 6 8 8 6 6 9 15 20 14 12 13 13 12 12 11 12 11 12 14 15 16 14 15 15 15 15 15 16 16 17 18 20 19 20 19 17 16 14 13 15 15 15
3 4 5 7 10 7 7 10 15 19 14 15 14 13 14 14 14 14 14 15 16 17 18 16 16 16 15 16 16 16 18 20 19 20 19 19 20 17 16 15 15 15 14 14 14
4 4 6 7 8 8 10 13 20 16 16 13 14 14 15 14 15 15 16 17 16 16 18 18 19 16 16 17 17 18 18 19 21 22 20 19 20 16 15 15 14 14 14 14 14
5 9 8 9 7 9 12 17 17 16 14 14 14 17 17 15 15 16 16 17 15 15 17 19 18 17 17 17 17 18 19 18 19 20 21 19 17 14 15 15 15 14 14 13 13
11 10 11 9 8 11 14 14 15 13 12 14 16 16 18 17 16 16 16 15 15 14 15 16 18 18 17 17 17 18 16 19 19 21 21 20 19 17 16 15 14 14 13 13 13
10 13 10 9 9 13 14 15 14 12 12 14 15 16 16 16 16 17 17 15 14 15 15 16 17 19 18 18 18 19 19 19 19 20 21 21 18 15 14 14 14 14 13 13 13
10 15 11 8 15 14 14 14 11 12 12 13 14 14 15 16 16 17 16 16 13 14 15 15 17 20 18 18 17 19 19 18 19 20 21 21 18 15 14 14 14 14 13 13 12
11 13 9 10 18 16 14 12 13 13 13 13 13 13 14 15 16 15 15 14 13 14 15 15 18 20 19 18 18 19 18 18 18 19 21 21 17 14 15 15 15 14 13 12 12
11 13 11 12 14 15 13 14 13 12 13 13 13 13 14 15 15 16 15 14 13 13 8 12 18 18 19 18 18 20 19 18 18 20 20 19 17 15 14 14 14 14 14 13 13
9 12 11 14 14 14 14 13 14 13 13 13 14 13 14 16 16 16 15 15 14 11 14 15 17 18 18 17 18 18 18 18 18 19 18 18 17 14 13 13 14 13 14 13 13
12 12 12 14 12 14 13 14 13 13 14 14 15 13 14 15 14 15 14 15 14 15 15 16 17 18 17 17 17 18 17 18 17 18 18 19 17 14 12 14 14 13 14 14 13
9 10 9 11 13 14 14 13 13 12 12 12 13 14 15 13 13 14 14 13 14 14 16 16 17 18 20 18 18 19 16 18 18 17 16 17 13 15 14 14 13 13 13 13 12